Flag for Canada Weather past 2 weeks in Trois-Rivieres, Quebec, Canada

Now
71 °F

Mild.


Feels Like: 75 °F
Forecast: 53 / 78 °F
Wind: 2 mph from East

Location: Trois Rivieres

Current Time: Sep 5, 2015 at 12:49:27 PM

Latest Report: Sep 5, 2015 at 12:00 PM


Visibility: N/A

Pressure: 30.23 "Hg

Humidity: 66%

Dew point: 58 °F

Location of Trois-RivieresLocation

Historic Weather in Trois-Rivieres — Graph

°F

Trois-Rivieres temperature yesterday

Maximum temperature yesterday: 73 °F (at 4:00 PM)
Minimum temperature yesterday: 53 °F (at 6:00 AM)
Average temperature yesterday: 64 °F

Past Weeks' High & Low Weather Summary

 TemperatureHumidityPressure
High80 °F (Aug 24, 5:00 PM)99% (Aug 24, 5:00 AM)30.26 "Hg (Aug 24, 5:00 AM)
Low53 °F (Sep 4, 6:00 AM)32% (Sep 3, 4:00 PM)29.75 "Hg (Aug 24, 6:00 PM)
Average69 °F76%29.98 "Hg
* Reported Aug 21 11:00 AM — Sep 5 11:00 AM, Trois-Rivieres, Weather by CustomWeather, © 2015

Note: Actual official high and low records may vary slightly from our data, if they occured in-between our weather recording intervals... More about our weather records

Advertising

Trois-Rivieres weather history for previous 24 hours

 ConditionsComfort  
Time TempWeatherWind HumidityBarometerVisibility
11:00 AM
Sat, Sep 5
67 °FMild.5 mph72%30.25 "HgN/A
10:00 AM65 °FMild.3 mph82%30.26 "HgN/A
9:00 AM62 °FCool.5 mph85%30.26 "HgN/A
8:00 AM59 °FCool.3 mph87%30.25 "HgN/A
7:00 AM57 °FCool.2 mph89%30.25 "HgN/A
6:00 AM56 °FCool.6 mph90%30.25 "HgN/A
5:00 AM56 °FCool.5 mph89%30.23 "HgN/A
4:00 AM58 °FCool.3 mph88%30.23 "HgN/A
3:00 AM56 °FCool.5 mph90%30.23 "HgN/A
2:00 AM59 °FCool.3 mph86%30.22 "HgN/A
1:00 AM60 °FCool.5 mph77%30.22 "HgN/A
12:00 AM62 °FCool.3 mph79%30.22 "HgN/A
11:00 PM
Fri, Sep 4
63 °FMild.1 mph86%30.21 "HgN/A
10:00 PM64 °FMild.1 mph79%30.21 "HgN/A
9:00 PM66 °FMild.2 mph64%30.23 "HgN/A
8:00 PM69 °FMild.3 mph51%30.22 "HgN/A
7:00 PM72 °FMild.3 mph43%30.21 "HgN/A
6:00 PM73 °FMild.3 mph42%30.20 "HgN/A
5:00 PM73 °FMild.6 mph38%30.19 "HgN/A
4:00 PM73 °FMild.7 mph40%30.19 "HgN/A
3:00 PM72 °FMild.7 mph47%30.19 "HgN/A
2:00 PM71 °FMild.8 mph50%30.20 "HgN/A
1:00 PM71 °FMild.9 mph53%30.21 "HgN/A
12:00 PM69 °FMild.8 mph67%30.22 "HgN/A
Weather by CustomWeather, © 2015

See weather overviewHow to use our weather pages